{"data":{"norad_id":66465,"intl_designator":"2025-262K","name":"STARLINK-35448","alt_names":[],"object_type":"PAYLOAD","status":"ACTIVE","operator":null,"country":"US","launch_date":"2025-11-15","launch_site_code":"AFETR","launch_vehicle":null,"mission":null,"orbit_class":"UNKNOWN","rcs_meters":null,"size_class":null,"mass_kg":null,"dimensions":null,"purposes":["comms"],"wikipedia_slug":null,"has_3d_model":false,"image_url":null,"decayed_at":null,"tle_current":{"epoch":"2026-05-25T04:33:56.247840Z","epoch_age_seconds":54769,"freshness":"FRESH","line1":"1 66465U 25262K   26145.19023435  .00008053  00000+0  30192-3 0  9992","line2":"2 66465  43.0008 224.3532 0002081 266.8481  93.2132 15.27572690 30604","mean_motion":15.2757269,"eccentricity":0.0002081,"inclination_deg":43.0008,"raan_deg":224.3532,"arg_perigee_deg":266.8481,"mean_anomaly_deg":93.2132,"bstar":0.00030192,"rev_number":3060,"period_min":94.267199814891,"perigee_km":481.64316751504,"apogee_km":484.49880227836,"semimajor_km":6861.2079848967,"source":"CELESTRAK","updated_at":"2026-05-25T13:38:21.215723Z"}}}